Terminal Aerodrome Forecast
Issued by NWS Paducah, KY

Home | Current Version | Previous Version | Text Only | Print | Product List | Glossary On
Versions: 1 2 3 4 5 6 7 8 9 10 11 12 13 14 15
000
FTUS43 KPAH 311100
TAFPAH
TAF
KPAH 311120Z 3112/0112 34005KT P6SM OVC050
     FM311500 35012G20KT P6SM OVC025
     FM311800 34018G28KT P6SM BKN045
     FM312200 34010G18KT P6SM SKC=

USA.gov is the U.S. government's official web portal to all federal, state and local government web resources and services.